Location: Hartman Creek State Park
(44.3257°N, 89.2134°W)
Time: 06:05:47
(UTC-05:00)

Terra - Visible Passes

Search period start: 25 May 2018 00:00
Search period end: 04 June 2018 00:00
Orbit: 701 x 703 km, 98.2° (Epoch: 25 May)

Date Brightness Start Highest point End Pass type
(mag) Time Alt. Az. Time Alt. Az. Time Alt. Az.
25 May 2.0 22:33:59 31° SE 22:36:06 59° ENE 22:40:47 10° N visible
26 May 3.9 00:12:52 15° WSW 00:14:13 16° W 00:17:09 10° NW visible
26 May 3.5 21:38:20 11° ESE 21:41:31 19° ENE 21:44:51 10° NNE visible
26 May 2.3 23:17:12 36° SSW 23:18:51 53° W 23:23:32 10° NNW visible
27 May 2.4 22:21:33 25° SE 22:23:56 45° ENE 22:28:29 10° N visible
28 May 3.6 00:00:26 18° WSW 00:01:53 21° W 00:05:29 10° NW visible
28 May 3.8 21:26:45 10° E 21:29:27 15° ENE 21:32:10 10° NNE visible
28 May 1.9 23:04:46 37° S 23:06:38 71° WSW 23:11:24 10° NNW visible
29 May 2.7 22:09:07 20° ESE 22:11:48 35° ENE 22:16:07 10° N visible
29 May 3.3 23:48:00 22° SW 23:49:35 27° W 23:53:38 10° NW visible
30 May 4.0 21:15:40 10° E 21:17:25 12° ENE 21:19:10 10° NE visible
30 May 1.7 22:52:20 34° SSE 22:54:25 88° ENE 22:59:13 10° NNW visible
31 May 4.3 00:32:06 10° W 00:32:49 10° W 00:33:32 10° WNW visible
31 May 3.1 21:56:41 15° ESE 21:59:41 27° ENE 22:03:42 10° N visible
31 May 2.9 23:35:34 27° SW 23:37:18 35° W 23:41:40 10° NNW visible
01 Jun 1.9 22:39:55 30° SSE 22:42:13 68° ENE 22:46:58 10° N visible
02 Jun 4.1 00:18:48 12° WSW 00:20:27 14° W 00:22:56 10° WNW visible
02 Jun 3.4 21:44:16 11° ESE 21:47:36 22° ENE 21:51:12 10° NNE visible
02 Jun 2.5 23:23:09 30° SSW 23:25:02 46° W 23:29:38 10° NNW visible
03 Jun 2.2 22:27:29 25° SE 22:30:04 52° ENE 22:34:41 10° N visible
